HYLAS 1

Last updated on Sun Jun 21 2026 00:03:04 GMT+0000 (Coordinated Universal Time)

1 37237U 10065A 26170.84211356 .00000082 00000+0 00000+0 0 9998 2 37237 5.6517 72.9856 0000972 323.6988 188.3294 1.00271861 6919
UTC large
Height (km)
Speed (km/s)
/
Latitude / Longitude
Inclination (degrees)
Orbital Period (minutes)
Azimuth
Elevation
Range (km)
Doppler Factor

Next 0 passes for location: London (51.5072 / 0.1276)

No passes found over London.
HYLAS 1